Simultaneous Nadir Overpasses (SNOs) Predictions

Prediction of SNOs over PacNW region [( 10.00, 139.50) to ( 22.70, 165.60)] between AQUA and NPP Satellites:

Table of predicted SNOs over PacNW region for the next 30.0 days since TLE Epoch: 10/31/2015
Index Date (AQUA) Time (AQUA) AQUA Lat,Lon Date (NPP) Time (NPP) NPP Lat,Lon Distance(km) Time Diff (sec)
1 11/06/2015 02:42:04 21.71, 160.06 11/06/2015 02:38:50 21.47, 158.78 134.89 194
2 11/11/2015 15:09:53 22.59, 159.80 11/11/2015 15:13:21 24.00, 157.45 286.62 208
3 11/14/2015 03:30:14 17.39, 148.72 11/14/2015 03:28:12 17.04, 147.17 168.88 122
4 11/22/2015 02:41:53 21.89, 160.07 11/22/2015 02:38:38 21.61, 158.75 139.70 196




NCC Satellite Simultaneous Nadir Overpasses (SNOs) Prediction Service
